カタログに戻る

COSMOS 1275 DEB

運用中PO
NORAD 15768·DEBRIS·🇷🇺 Russia

打ち上げ Jun 4, 1981 から Plesetsk Cosmodrome

Loading…

次のパス (今後24時間)

TLE

最新Source: Space-Track

元期: Sep 13, 2026, 16:09 UTC

1 15768U 81053KD  26256.67321157  .00002100  00000-0  96892-3 0  9997
2 15768  83.0600 132.4877 0049065  47.2064   8.6511 14.19961032106212

AllMySatでCOSMOS 1275 DEBをリアルタイム追跡

Download on the App Store